Regional Weather Roundup
Issued by NWS

Home | Current Version | Previous Version | Text Only | Print | Product List | Glossary Off
Versions: 1 2 3 4 5 6 7 8 9 10 11 12 13 14 15 16 17 18 19 20 21 22 23 24 25 26 27 28 29 30 31 32 33 34 35 36 37 38 39 40 41 42 43 44 45 46 47 48 49 50

000
ASUS43 KFSD 031710
RWRSD

WEATHER ROUNDUP FOR SOUTH DAKOTA
NATIONAL WEATHER SERVICE SIOUX FALLS SD
1100 AM CST TUE MAR 03 2015

NOTE: "FAIR" INDICATES FEW OR NO CLOUDS BELOW 12,000 FEET WITH NO
SIGNIFICANT WEATHER AND/OR OBSTRUCTIONS TO VISIBILITY.


SDZ001>005-009-010-012>017-031800-
NORTHWEST AND NORTH CENTRAL SOUTH DAKOTA

CITY           SKY/WX    TMP DP  RH WIND       PRES   REMARKS
BUFFALO          N/A     12  -3  51 NW32G38   29.94S WCI -10
FAITH            N/A     12  -1  56 NW25G36   30.00F WCI  -8
MOBRIDGE       MOSUNNY   14  -3  47 NW24G35   29.99S WCI  -5
$$

SDZ012>016-024>037-041>051-057-063-072>074-031800-
SOUTHWEST AND SOUTH CENTRAL SOUTH DAKOTA

CITY           SKY/WX    TMP DP  RH WIND       PRES   REMARKS
RAPID CTY ARPT CLOUDY    14   2  58 N25G36    30.02R WCI  -5
PIERRE         CLOUDY    16   2  54 NW33G39   30.02S WCI  -5
CUSTER         LGT SNOW  12   3  67 VRB3      29.83R
ELLSWORTH AFB  CLOUDY    14   4  64 NW23G31   30.01R WCI  -5
PHILIP         PTSUNNY   17   5  59 NW20      30.06R WCI   1
PINE RIDGE     FLURRIES  16   6  65 N15G26    30.02R WCI   1
SPEARFISH      FLURRIES   9   0  66 MISG      30.00S
WINNER         LGT SNOW  19   9  65 NW23G29   30.00S WCI   2
$$

SDZ004>011-016>023-039-040-031800-
NORTHEAST SOUTH DAKOTA

CITY           SKY/WX    TMP DP  RH WIND       PRES   REMARKS
ABERDEEN       SUNNY     12   2  64 NW31G37   29.99R BLWGSNOWWCI -10
WATERTOWN      LGT SNOW  13   6  74 NW35G40   29.85R WCI -10
SISSETON         N/A     14   7  73 N29G39    29.87R WCI  -7
$$

SDZ017-020-022-023-036>040-048>070-031800-
SOUTHEAST SOUTH DAKOTA

CITY           SKY/WX    TMP DP  RH WIND       PRES   REMARKS
SIOUX FALLS    CLOUDY    21  15  78 NW28G38   29.83R BLWGSNOWWCI   3
HURON          MOSUNNY   15   5  64 NW25G37   29.97R WCI  -4
CHAMBERLAIN    MOSUNNY   16   5  62 N23G37    30.01R HAZE    WCI  -3
MITCHELL       SNOW      18  12  77 NW33G41   29.96R VSB 1/2 WCI  -2
YANKTON        SUNNY    N/A N/A N/A NW30G43   29.90R
$$

ABBREVIATIONS USED IN REMARKS
   TC - TEMPERATURE IN CELSIUS
  WCI - WIND CHILL INDEX
   HX - HEAT INDEX
  VSB - VISIBILITY




USA.gov is the U.S. government's official web portal to all federal, state and local government web resources and services.